This is the latest recevied weather packets stored in our database for station/object KW6V-15. If no packets are shown the sender has not sent any weather packets the latest 1 day(s).
| Time | Temp. | Humidity | Pressure | Rain* | Wind** | Luminosity | Snow |
|---|---|---|---|---|---|---|---|
| 1778059818 | 11.67° C | 89% | 1019.5 hPa | 0 mm | 0 m/s | - | - |
| 1778056221 | 11.67° C | 89% | 1019.4 hPa | 0 mm | 0 m/s | - | - |
| 1778054428 | 11.67° C | 89% | 1019.5 hPa | 0 mm | 0 m/s | - | - |
| 1778052625 | 11.67° C | 89% | 1019.2 hPa | 0 mm | 0 m/s | - | - |
| 1778050864 | 11.67° C | 89% | 1019 hPa | 0 mm | 0 m/s | - | - |
| 1778049015 | 12.22° C | 89% | 1018.7 hPa | 0 mm | 0 m/s | - | - |
| 1778047251 | 11.67° C | 89% | 1018.5 hPa | 0 mm | 0 m/s | - | - |
| 1778045435 | 12.22° C | 89% | 1018.4 hPa | 0 mm | 0 m/s | - | - |
| 1778043641 | 11.67° C | 88% | 1018.3 hPa | 0 mm | 0 m/s | - | - |
| 1778041846 | 12.22° C | 88% | 1018 hPa | 0 mm | 0 m/s | - | - |
| 1778040043 | 12.22° C | 88% | 1017.4 hPa | 0 mm | 0 m/s | - | - |
| 1778038242 | 12.22° C | 87% | 1017 hPa | 0 mm | 0 m/s | - | - |
| 1778036459 | 12.78° C | 87% | 1016.8 hPa | 0 mm | 0 m/s | - | - |
| 1778034621 | 13.33° C | 85% | 1016.5 hPa | 0 mm | 0 m/s | - | - |
| 1778032847 | 13.89° C | 83% | 1016.3 hPa | 0 mm | 0 m/s | - | - |
| 1778031031 | 13.89° C | 84% | 1016.2 hPa | 0 mm | 0 m/s | - | - |
| 1778029278 | 13.89° C | 84% | 1016.2 hPa | 0 mm | 0 m/s | - | - |
| 1778027442 | 13.89° C | 84% | 1016.1 hPa | 0 mm | 0 m/s | - | - |
| 1778025640 | 13.89° C | 85% | 1016.2 hPa | 0 mm | 0 m/s | - | - |
| 1778023837 | 13.89° C | 85% | 1016.3 hPa | 0 mm | 0 m/s | - | - |
| 1778022022 | 14.44° C | 84% | 1016.4 hPa | 0 mm | 0 m/s | - | - |
| 1778020265 | 15° C | 83% | 1016.5 hPa | 0 mm | 0 m/s | - | - |
| 1778018441 | 15° C | 82% | 1016.4 hPa | 0 mm | 0 m/s | - | - |
| 1778016623 | 15.56° C | 80% | 1016.3 hPa | 0 mm | 0 m/s | - | - |
| 1778014851 | 15° C | 82% | 1016.2 hPa | 0 mm | 0 m/s | - | - |
* Rain latest hour (hover to see other rain measurements)
** Current wind speed in m/s (hover to see current wind gust speed)